Theta_e
301 301 301 302 302 302 302 303 303 302 302 297 294 296 291 290 287 298 304 305 302 293 284 287 285 284 287 291 290 291 289 288 290 288 289 288 291 288 286 286 284 286 281 284 282 284 280 282 280 283 284 284 286 285 287 289 287 288 285 287 288 296 283 279 279 281 286 286 287 289 290 289 285 286 284 284 284 282 280 276 277 280 279 279 277 276 274
301 301 300 302 302 303 303 303 303 303 302 298 297 292 290 290 290 291 302 306 302 289 281 282 284 285 288 289 287 291 288 287 286 286 288 287 288 286 285 284 288 282 285 285 283 286 276 284 284 284 286 284 288 287 287 290 288 288 285 285 291 282 281 280 276 277 280 283 285 285 287 288 284 283 284 285 284 283 282 281 280 279 279 281 277 274 273
301 301 300 301 302 302 302 302 302 302 302 302 296 289 290 290 293 293 296 302 298 285 286 284 283 284 284 284 283 285 286 288 289 288 287 290 289 288 287 287 288 286 289 286 288 288 283 280 286 287 288 286 289 287 288 290 288 291 295 299 293 285 281 280 274 275 273 273 274 277 280 283 282 284 284 284 285 284 284 280 280 278 280 280 277 273 281
300 300 300 300 301 302 302 302 302 302 302 303 295 291 291 288 281 286 288 295 294 291 292 287 284 283 283 282 284 285 284 288 289 290 288 289 289 288 288 289 291 288 288 285 284 285 289 285 281 284 284 285 289 288 288 289 290 295 300 301 293 287 287 285 280 278 278 278 281 284 284 282 282 281 285 284 284 286 285 280 278 279 276 279 279 282 282
300 300 300 300 300 301 301 302 302 302 302 303 294 290 290 290 283 284 283 288 291 287 287 285 285 283 286 281 284 282 284 286 287 291 285 291 288 288 287 287 285 286 286 282 282 285 285 288 286 285 286 286 287 291 288 289 293 299 297 300 291 288 283 284 284 282 283 282 282 285 288 283 281 282 283 284 285 284 284 280 278 282 282 277 280 282 287
299 299 300 300 300 301 301 301 301 301 302 303 294 286 290 284 288 289 291 284 282 283 284 285 285 286 286 283 286 283 284 285 284 288 290 290 290 284 286 287 286 287 285 285 281 282 283 285 281 287 288 288 290 288 290 288 294 298 295 299 292 287 282 283 285 284 285 285 284 286 287 286 283 284 283 283 284 283 284 283 281 285 281 280 283 284 287
299 300 300 300 300 301 301 301 301 302 301 301 292 287 291 290 289 288 293 283 286 285 286 287 285 284 286 284 285 283 285 284 287 287 285 284 286 288 279 281 284 286 288 284 280 282 279 280 285 286 286 288 287 283 286 290 293 295 292 293 292 289 283 285 286 285 286 285 285 285 287 283 284 284 284 284 283 284 285 284 281 286 285 283 283 286 289
300 299 299 300 300 300 301 301 301 301 301 299 292 291 286 284 284 283 289 288 286 286 287 286 285 284 288 284 286 285 285 284 288 289 286 283 287 288 282 286 287 286 287 286 284 286 285 283 281 286 286 286 286 286 287 287 292 293 291 292 294 288 281 290 285 284 285 287 287 285 286 285 284 283 284 284 285 284 283 283 283 287 285 286 284 286 288
300 299 299 299 300 300 300 300 301 301 301 293 291 290 292 291 292 291 285 282 284 288 288 286 285 284 286 284 286 286 287 287 290 291 293 288 286 287 286 290 292 293 291 289 287 290 291 290 290 291 291 285 291 289 289 293 288 289 290 291 293 289 281 285 283 281 281 286 284 283 285 286 284 282 281 282 283 283 282 283 285 285 285 286 288 289 289
300 300 299 299 299 300 300 300 301 301 301 294 292 288 294 293 294 293 289 282 287 284 287 287 287 284 285 285 286 286 287 290 292 288 292 290 291 292 293 293 292 292 291 289 290 291 294 295 296 295 295 295 295 296 296 294 289 287 289 291 287 286 283 282 276 279 275 283 284 283 283 283 281 280 283 283 283 282 283 285 287 286 287 286 283 287 291
301 300 300 299 299 300 300 300 300 301 299 293 291 290 292 289 288 289 289 282 284 286 285 285 285 288 288 289 288 290 289 290 292 287 287 292 292 293 293 292 291 289 288 290 297 299 299 301 301 297 297 296 296 295 296 295 293 290 291 289 288 287 286 283 281 280 277 283 283 283 282 273 273 281 283 286 286 285 285 284 287 287 289 288 290 290 292
301 301 300 299 299 299 300 299 300 301 299 298 297 292 294 294 292 290 286 281 283 287 285 283 285 287 286 289 289 288 288 289 290 293 289 290 293 295 294 294 294 285 292 298 300 300 301 301 299 297 296 296 296 297 296 293 294 294 294 291 287 286 284 283 280 280 280 281 282 280 273 272 283 286 287 287 290 287 287 286 286 286 288 289 290 292 294
301 301 301 300 299 299 299 299 299 300 300 298 296 291 295 296 291 289 287 284 282 284 282 284 288 288 289 289 289 289 291 292 293 293 293 291 291 294 294 293 291 293 301 300 299 297 293 290 288 290 293 295 296 295 293 294 293 295 295 294 291 283 285 281 281 279 278 277 277 274 272 281 286 291 293 291 288 286 288 286 287 289 289 290 289 291 295
302 301 301 301 300 299 299 299 299 300 301 300 295 294 295 295 290 289 288 283 283 286 287 285 287 287 287 287 288 289 291 291 292 294 291 294 292 293 295 297 298 301 302 300 296 292 286 283 281 284 287 291 290 289 292 295 294 294 294 296 294 291 288 284 282 282 279 277 273 277 282 287 288 288 292 291 290 285 286 280 283 288 290 291 292 294 296
302 302 301 301 300 299 299 299 299 299 300 300 296 295 294 294 294 290 291 288 282 285 286 282 285 286 288 288 289 287 288 288 289 289 293 294 293 297 297 300 302 301 298 296 290 287 284 282 281 281 283 283 280 282 289 287 293 295 295 293 294 291 286 284 285 282 280 281 277 278 279 276 283 290 292 294 295 292 288 284 286 291 290 293 293 295 296
302 302 302 301 301 300 300 299 299 299 299 300 297 295 294 295 295 294 291 287 285 280 283 287 289 288 287 288 289 288 287 287 288 290 289 291 293 296 299 300 300 299 299 294 290 284 282 282 280 281 279 281 285 284 281 287 286 293 294 294 293 291 288 287 284 282 281 280 279 274 274 278 283 288 293 294 294 295 290 286 282 285 291 294 295 297 298
302 302 302 302 301 301 300 299 299 299 299 299 295 294 292 295 295 292 289 288 287 283 289 290 290 290 288 286 289 289 290 287 290 286 285 287 291 293 296 299 300 299 296 288 287 284 283 282 281 282 284 288 283 281 286 285 284 285 290 290 290 288 283 282 283 280 277 276 276 278 277 283 292 291 293 297 295 293 287 281 276 287 290 291 295 299 300
303 302 302 302 301 301 301 300 299 299 299 299 297 293 291 294 296 294 290 287 283 283 287 289 287 284 283 287 287 291 293 292 291 292 288 291 290 291 294 295 294 298 296 286 284 282 283 282 282 282 282 289 289 287 279 283 281 281 284 283 283 281 281 281 280 278 278 278 277 278 282 288 291 292 298 299 296 288 281 276 283 288 290 293 295 298 300
303 303 302 302 302 302 301 300 299 299 299 299 297 295 291 291 295 296 291 287 285 281 288 293 290 287 290 293 291 292 293 293 292 287 287 287 289 294 295 294 295 291 295 285 285 283 282 283 286 285 284 286 289 283 286 282 281 283 283 282 283 281 279 279 278 278 279 274 277 279 281 288 294 297 299 297 290 281 276 284 289 294 298 296 296 299 301
304 303 303 302 302 302 302 301 300 299 299 299 297 292 294 296 296 296 291 285 286 283 286 287 288 287 292 291 290 289 291 292 293 290 288 285 294 294 292 288 293 296 293 290 285 286 285 284 284 285 284 283 286 289 283 283 285 284 282 282 279 282 279 278 277 278 276 272 277 278 281 289 297 299 295 295 286 284 287 293 296 295 297 297 296 300 302
303 303 303 302 302 302 302 302 301 299 299 299 298 293 291 296 296 297 296 292 286 281 283 290 290 289 291 291 293 294 292 289 292 290 293 292 295 292 287 287 292 293 290 289 284 284 286 284 285 285 288 287 287 287 283 281 283 289 287 283 284 285 279 277 277 278 278 274 277 281 286 291 296 295 290 297 295 299 294 297 298 297 296 296 294 297 302
304 303 303 303 302 303 302 302 301 300 299 299 298 295 291 295 296 297 297 295 288 284 286 290 291 290 291 293 293 294 294 294 296 297 293 289 293 294 294 296 296 296 297 294 287 285 288 287 286 283 286 285 286 283 284 279 280 285 287 286 283 290 284 280 283 284 281 281 283 288 290 295 296 297 298 296 300 298 297 297 299 299 298 299 297 298 299
304 303 303 303 303 303 302 302 301 300 299 299 297 293 290 293 294 297 295 289 291 291 292 291 293 293 295 295 296 296 297 298 298 298 298 293 288 290 292 293 293 298 298 297 293 291 289 289 288 288 285 286 285 283 284 282 280 285 285 290 291 292 292 289 292 292 295 295 294 297 296 296 298 297 296 297 300 300 298 299 298 299 298 298 298 298 300
304 303 303 303 303 303 302 302 302 300 299 299 298 294 293 294 294 294 292 290 286 284 290 293 289 286 288 291 295 298 298 297 298 299 301 300 289 288 293 297 300 297 295 297 297 296 291 288 289 289 286 288 285 281 282 284 284 287 284 288 288 290 292 289 291 294 288 288 292 295 297 296 298 298 300 300 299 298 298 299 298 298 298 299 299 299 302
303 303 303 303 302 302 302 302 302 301 300 299 297 297 296 294 293 293 289 283 284 284 282 285 287 292 295 297 299 298 299 301 302 301 300 300 298 294 294 300 302 298 297 298 298 292 284 289 290 285 285 291 291 286 287 283 287 286 284 285 284 289 293 289 287 285 283 288 294 297 296 297 298 296 297 298 299 300 299 298 299 299 300 300 299 302 304
303 303 303 303 302 303 302 302 301 300 299 298 298 294 292 292 294 294 293 291 290 287 282 283 288 295 297 297 295 297 300 301 301 301 300 300 300 300 300 302 302 303 300 298 296 293 286 285 285 285 285 290 293 287 289 291 289 288 287 289 292 291 293 288 288 289 292 294 296 295 297 299 299 299 297 297 297 298 300 300 301 301 302 303 304 301 300
303 303 303 302 302 302 302 302 301 300 299 299 297 295 294 294 295 293 291 291 287 285 285 283 289 294 297 294 297 298 300 299 299 299 300 300 300 300 300 299 299 299 297 294 292 285 285 285 286 287 288 291 293 290 290 289 289 287 287 292 292 290 287 290 291 290 288 289 292 295 291 291 295 297 298 298 299 299 301 302 302 301 301 301 305 305 304
303 303 303 302 302 302 302 301 301 300 299 299 298 295 295 294 295 296 296 294 291 286 286 286 287 292 297 292 296 297 298 300 299 298 298 299 300 300 299 299 300 298 294 293 288 287 286 288 289 286 286 288 289 289 289 289 285 283 287 290 292 292 291 285 285 287 287 290 294 293 295 295 295 295 296 296 298 300 301 299 299 300 300 300 302 304 305
303 303 302 302 302 302 302 302 300 300 300 299 295 294 294 298 297 297 297 297 295 291 289 289 292 289 282 291 296 297 299 300 299 297 297 297 299 299 299 301 300 299 293 288 287 287 287 287 285 289 292 294 289 287 285 283 282 284 289 293 293 293 294 293 293 288 294 294 296 294 292 294 295 295 295 297 297 300 300 299 299 300 299 300 300 300 302
303 302 302 302 302 302 302 301 300 300 299 296 294 288 283 294 299 298 298 298 296 295 287 285 282 285 291 292 292 295 296 298 297 297 295 297 298 299 300 300 300 296 292 289 289 290 287 288 287 290 294 295 289 285 284 285 285 288 291 293 295 294 295 294 293 295 295 296 296 297 298 296 295 296 297 297 298 299 299 298 299 299 300 301 301 301 300
303 302 302 302 302 302 301 301 300 300 298 295 292 284 281 283 292 300 300 299 298 292 286 286 284 288 286 290 292 293 295 296 295 295 296 297 298 300 302 302 296 298 291 288 289 288 288 290 288 293 296 292 287 286 286 285 283 285 294 294 295 296 296 296 294 295 297 298 297 297 296 294 293 297 300 297 297 297 297 297 299 302 301 301 301 300 300
303 302 302 302 301 301 301 300 300 299 295 293 290 287 285 290 296 300 301 299 297 292 285 283 283 284 283 288 292 295 296 296 295 291 290 294 295 296 299 301 295 295 292 284 285 288 288 286 288 291 293 293 288 282 281 282 284 289 294 295 297 297 297 298 299 299 298 297 297 298 297 296 295 296 294 294 295 296 297 297 297 298 300 300 300 300 300
302 302 302 302 301 301 300 300 300 298 294 296 300 300 300 300 300 300 300 298 295 290 289 284 282 284 283 288 292 292 294 292 287 288 291 291 293 293 293 292 289 291 297 290 287 289 287 282 283 287 290 291 288 284 284 285 289 292 292 292 294 296 297 297 299 298 298 297 296 293 293 293 293 293 294 294 295 296 296 297 298 300 301 300 299 299 300
302 302 301 301 300 300 300 299 300 299 299 296 292 294 297 300 300 301 301 298 294 293 291 286 285 284 284 289 286 290 293 290 287 286 286 290 291 291 288 289 288 288 288 290 288 287 287 285 287 286 288 287 285 287 288 290 292 292 293 293 293 295 296 299 297 296 296 297 297 297 296 295 294 293 294 295 295 295 296 296 299 300 298 298 297 297 296
302 301 300 300 300 300 299 298 295 295 292 293 292 294 294 299 301 302 300 295 289 287 287 287 288 285 284 282 277 285 292 291 287 285 285 286 288 290 288 287 283 284 287 290 281 281 283 285 286 285 287 284 286 287 286 288 294 293 293 294 294 293 296 296 294 294 296 296 296 295 295 294 295 294 293 294 294 295 296 296 296 298 297 295 295 295 296
300 300 299 299 298 298 295 296 295 293 289 288 289 297 300 301 302 301 300 298 296 286 285 286 285 283 281 276 277 284 292 289 287 286 285 284 286 287 284 285 285 286 286 283 284 280 283 287 288 285 279 283 285 285 288 288 294 292 293 293 294 294 294 295 294 295 295 296 295 295 295 294 294 292 292 292 293 294 294 295 295 295 295 295 294 294 295
299 298 298 297 293 292 288 287 293 291 286 290 296 300 301 301 300 299 296 296 297 298 292 285 284 285 285 281 278 284 289 284 286 282 281 282 281 280 281 281 283 283 282 279 278 282 286 287 281 280 279 282 286 286 287 289 292 293 293 294 293 292 294 294 295 295 294 294 294 293 293 293 292 292 293 292 292 292 295 294 292 293 294 292 292 293 293
298 297 290 286 286 282 285 289 292 294 298 297 298 294 293 296 288 289 290 288 291 296 289 292 286 288 285 282 281 288 287 283 282 282 280 279 281 281 279 281 282 283 281 277 281 286 280 280 279 283 283 283 283 285 286 288 290 290 292 292 293 294 295 295 296 296 294 293 291 291 292 292 292 290 292 291 291 292 290 289 289 288 289 290 290 290 293
294 288 284 283 283 280 283 288 294 297 294 294 292 289 285 286 287 287 287 289 290 288 289 290 287 290 286 283 286 289 288 286 283 278 280 283 282 279 280 279 280 279 276 278 280 284 282 279 275 277 285 283 287 292 289 287 289 290 290 291 292 293 295 295 294 296 295 293 294 293 292 293 292 290 290 291 289 289 288 289 290 290 289 289 289 290 292
285 284 280 278 278 280 288 291 296 293 292 288 283 283 283 285 285 283 285 286 287 287 289 285 291 290 290 287 284 284 288 286 281 280 281 281 285 281 280 278 278 278 276 274 277 279 280 280 277 277 280 279 286 287 288 290 291 289 289 290 291 291 291 291 291 291 292 291 291 290 291 293 294 294 292 291 291 292 290 290 288 288 288 289 288 292 293
284 283 281 277 281 284 287 291 290 287 285 285 285 283 281 281 282 281 284 281 280 283 289 288 286 284 287 287 285 285 290 289 286 283 281 282 283 282 278 278 279 276 272 274 278 276 276 276 273 276 279 279 282 288 289 289 289 289 289 289 290 290 292 293 293 294 295 294 294 293 292 292 292 291 291 291 291 291 290 289 289 288 289 290 291 291 290
286 286 286 288 290 292 290 288 283 285 285 285 282 279 280 281 281 281 279 279 278 275 281 286 282 281 283 287 288 288 286 288 282 280 282 280 284 281 277 276 276 275 273 277 278 272 275 276 273 274 276 279 281 285 288 289 289 289 289 290 291 293 294 295 294 294 295 295 293 292 291 291 291 289 291 290 291 290 290 289 289 288 290 290 289 290 289
297 295 292 287 285 284 283 281 280 281 279 279 276 276 277 277 278 278 279 280 283 285 286 289 288 288 288 288 285 288 286 287 287 283 282 281 280 276 275 274 275 275 278 275 274 273 274 273 272 275 278 282 286 287 288 288 288 288 288 289 290 292 294 295 294 294 292 294 294 293 291 291 290 290 290 291 290 289 288 288 289 290 289 289 289 289 288
290 290 287 283 283 282 280 277 283 283 279 277 275 274 275 276 278 277 278 279 283 285 287 288 286 285 282 284 285 283 284 288 285 280 282 279 279 275 274 275 277 278 279 274 274 276 275 272 277 281 282 280 285 287 287 288 289 289 289 289 289 291 292 293 293 293 292 291 292 291 291 291 289 290 290 290 291 291 288 287 287 288 288 288 289 289 288
282 280 279 279 278 279 279 274 279 277 274 275 279 276 277 277 279 279 280 284 287 288 288 286 285 284 284 286 285 284 283 284 284 282 280 279 277 275 275 277 274 271 275 275 271 272 275 277 280 281 280 283 287 287 287 288 290 292 291 289 291 291 292 293 292 292 292 293 293 293 292 289 291 290 289 290 290 291 291 291 288 288 288 288 287 288 288
280 278 277 276 274 277 276 272 275 276 278 281 282 282 281 282 283 283 285 287 286 286 287 289 286 285 283 284 284 285 282 281 282 281 278 276 275 276 276 277 274 273 273 269 271 273 274 277 278 280 280 284 288 288 287 288 288 289 292 292 290 290 291 291 292 292 293 291 290 292 291 289 291 291 291 290 290 291 290 289 287 289 288 288 289 289 289
280 280 279 278 277 279 281 276 276 278 281 281 282 283 282 283 286 287 288 288 286 287 287 287 286 286 285 283 283 283 278 280 282 281 280 280 277 277 277 277 276 271 272 272 270 268 271 278 278 280 281 282 286 288 289 289 289 290 291 291 290 291 289 290 290 291 290 290 291 291 290 290 290 290 290 292 293 293 293 290 288 287 288 290 289 287 287
277 279 279 274 273 279 279 279 281 280 281 282 282 282 282 283 284 286 287 286 287 287 287 287 286 283 283 284 285 283 281 280 282 282 280 279 278 273 270 271 270 269 270 273 270 273 277 277 280 281 282 285 290 289 289 289 289 289 291 291 291 290 289 290 290 289 290 292 292 292 291 290 292 291 292 293 293 292 291 291 289 288 288 287 288 286 287
279 278 278 277 280 280 278 279 280 280 282 282 282 280 281 282 284 287 289 287 288 289 289 287 284 283 284 284 283 282 283 284 281 280 280 277 276 272 271 271 269 273 274 273 274 277 280 282 281 282 286 288 287 291 290 291 291 291 291 292 292 292 291 291 291 291 290 292 293 293 293 292 291 291 290 291 294 293 290 290 290 289 288 288 288 287 287
279 277 281 280 279 278 281 281 279 277 279 281 280 279 280 282 284 288 290 290 289 288 286 286 285 285 285 283 283 282 282 280 280 280 277 275 272 271 270 270 270 273 277 280 278 280 281 282 284 287 287 288 287 289 290 289 288 290 290 290 290 290 291 291 290 291 292 292 292 293 293 292 291 293 294 295 292 289 290 291 291 289 289 288 288 287 289
279 281 279 281 280 278 280 275 274 276 278 279 279 279 280 281 283 286 288 289 288 283 283 283 282 282 282 281 280 279 280 283 280 279 276 276 274 271 272 273 272 274 279 282 283 284 284 284 286 287 287 286 287 288 290 291 290 290 289 289 289 288 288 289 291 291 290 290 291 289 292 293 294 294 293 292 292 291 291 292 291 290 289 289 288 288 288
275 275 276 279 281 282 281 279 278 278 278 279 280 281 282 282 284 286 290 288 284 283 281 281 282 282 279 280 281 282 283 281 277 276 276 278 275 277 273 274 281 285 285 285 286 285 285 285 286 289 290 289 288 288 288 289 289 289 289 289 289 289 289 289 290 290 290 290 292 293 294 293 292 292 292 292 292 293 294 292 290 289 289 289 288 289 289
Wind_Speed
21 21 23 23 25 25 26 26 27 26 27 12 10 6 3 4 4 2 5 6 4 1 4 3 3 4 4 4 9 8 8 6 4 5 1 3 3 2 4 4 2 3 1 2 2 1 0 2 3 4 3 3 9 4 7 6 5 4 2 2 3 4 0 1 1 2 2 2 1 7 9 9 4 3 3 7 8 7 8 5 6 7 1 1 1 1 4
20 21 22 22 24 25 25 24 26 27 26 13 8 4 4 4 4 4 1 4 2 1 3 4 4 6 8 8 12 6 6 3 6 4 2 2 1 3 1 1 4 0 3 2 1 1 1 2 1 0 3 3 6 8 6 8 5 5 4 4 2 2 2 3 4 5 4 2 4 3 2 7 6 6 4 6 4 4 2 5 2 3 5 6 6 4 4
20 21 22 23 22 23 25 25 26 28 27 19 6 4 4 4 3 4 2 2 3 2 1 3 7 8 10 11 12 8 3 4 7 7 7 4 5 3 3 4 3 4 5 4 1 1 0 0 3 0 1 3 1 8 9 9 5 7 3 5 4 2 2 2 5 10 11 10 10 11 10 14 4 3 7 6 9 6 5 4 1 3 1 4 3 3 9
21 21 21 23 23 22 24 24 25 26 26 24 5 3 3 3 5 3 2 1 2 3 2 4 4 7 7 11 5 1 4 2 4 5 7 5 5 3 3 4 6 3 2 1 1 1 1 2 1 1 1 2 1 4 9 9 6 6 9 3 4 1 1 1 3 6 9 6 2 2 6 4 7 5 11 7 5 8 5 6 5 6 3 5 7 7 5
20 20 20 20 22 24 23 24 24 23 24 25 6 2 0 2 2 5 7 4 3 3 2 3 1 5 5 4 4 5 2 4 5 6 1 1 2 2 5 3 1 1 1 0 1 2 1 1 1 3 2 2 2 3 7 9 10 10 9 9 2 1 2 2 4 4 7 8 4 7 11 7 4 8 9 9 8 5 7 6 6 5 9 3 5 5 2
20 20 20 20 21 21 23 23 23 23 23 25 5 3 3 3 1 2 2 4 5 9 4 1 9 12 2 4 2 5 9 7 2 1 4 3 2 2 1 1 3 2 2 1 3 1 1 2 2 1 1 1 4 4 3 5 9 12 2 3 3 0 1 3 1 4 6 7 4 11 10 9 8 11 10 11 9 7 8 7 5 7 5 9 4 6 4
20 19 20 20 20 20 21 22 22 22 23 17 3 4 2 1 2 4 4 5 4 4 13 14 10 12 7 3 2 6 8 9 3 2 4 1 1 1 2 2 3 4 2 0 1 4 1 1 1 1 0 0 1 0 2 1 7 7 3 1 2 1 5 4 1 7 6 5 5 6 16 6 10 10 12 11 10 11 11 8 5 10 5 5 4 8 9
19 20 20 19 20 21 21 21 23 21 22 11 4 7 4 5 5 4 2 6 9 9 7 5 7 7 5 4 3 4 6 10 8 2 2 2 0 3 1 8 3 3 4 6 4 6 5 3 2 1 2 3 2 2 2 6 3 6 4 2 1 3 5 1 1 0 2 2 1 4 11 12 9 9 11 12 12 10 6 4 1 0 1 0 2 3 7
18 19 19 19 19 19 20 21 21 20 17 5 7 3 4 3 3 4 8 10 5 6 5 7 8 5 4 6 8 7 9 10 12 8 7 5 3 4 6 6 5 4 8 8 10 6 4 3 3 7 4 2 1 1 2 3 6 7 3 3 0 3 4 1 1 1 2 1 4 5 8 10 9 6 6 9 8 7 3 5 6 5 5 1 2 0 5
17 18 19 20 19 19 19 20 20 18 14 4 4 3 3 3 4 5 4 5 5 8 7 7 5 4 3 2 10 4 11 12 12 7 2 5 7 6 7 5 4 4 2 7 11 11 9 7 9 8 7 5 4 3 3 1 8 4 2 2 2 4 2 2 1 1 2 2 2 6 6 7 4 6 8 11 4 2 3 1 3 4 8 7 4 8 5
17 17 18 18 19 18 18 18 18 19 10 8 6 4 6 5 5 3 2 5 3 3 9 6 4 3 6 9 12 12 10 12 9 6 4 2 8 9 8 8 4 5 4 3 2 3 6 9 6 2 4 5 4 3 2 3 5 4 5 1 1 1 2 1 1 1 2 1 3 3 9 7 6 4 3 4 7 8 6 4 7 5 6 5 6 6 2
17 16 17 17 18 18 17 17 16 17 12 4 4 4 4 5 5 3 3 5 7 3 5 7 7 8 11 13 9 10 12 14 13 7 7 4 8 3 3 4 1 5 4 2 5 4 3 2 2 0 2 3 3 2 4 7 2 1 3 2 2 1 2 0 1 1 2 1 2 7 7 5 2 2 3 4 1 4 9 1 1 5 3 3 3 5 1
17 17 16 17 18 18 17 17 16 16 15 6 5 6 5 5 3 3 4 4 6 10 11 10 9 11 10 12 12 11 11 11 9 9 5 4 4 3 2 1 2 6 4 9 9 6 1 2 2 0 2 2 3 5 7 8 1 3 4 2 1 1 1 1 1 1 2 3 3 5 4 3 3 2 2 2 3 3 6 3 1 2 6 4 5 4 1
17 16 16 16 17 17 18 17 17 16 17 11 5 5 5 5 3 3 3 4 8 5 8 13 8 10 14 13 11 13 11 11 13 2 4 2 4 7 4 1 4 4 11 7 4 2 2 3 2 2 3 2 4 5 3 3 4 4 2 1 2 2 2 1 1 0 4 3 4 2 2 2 3 2 2 1 0 2 5 5 3 3 3 5 3 1 3
16 17 17 16 16 16 17 18 17 16 15 14 5 4 4 4 3 3 3 3 7 12 5 4 10 13 13 12 10 12 8 9 10 10 8 4 3 4 3 5 10 9 4 3 1 2 1 2 3 5 2 4 6 2 3 3 5 4 2 4 1 3 2 2 1 1 4 6 4 2 2 1 3 2 2 1 1 2 2 3 1 2 4 4 3 3 5
15 16 17 16 16 16 15 15 16 16 16 15 5 5 4 2 2 2 3 3 5 8 3 5 7 9 9 10 10 8 6 8 8 8 7 4 3 12 10 4 6 2 0 1 1 1 0 2 4 5 3 3 2 3 1 3 4 5 2 2 3 2 3 2 6 3 2 4 6 2 3 1 3 4 5 3 0 1 2 3 2 3 3 4 5 5 5
15 16 16 16 16 16 16 15 16 17 16 16 7 5 4 3 2 3 2 3 2 9 12 12 7 4 7 8 2 1 4 5 8 7 7 9 9 9 12 12 5 1 1 4 3 2 4 5 2 5 4 3 2 3 3 2 1 2 4 4 3 6 4 2 3 2 0 5 4 1 2 2 0 4 4 4 2 2 3 5 5 1 3 3 4 7 9
16 16 16 16 16 16 16 14 13 14 15 16 8 5 4 3 1 1 1 2 4 8 4 2 3 4 3 3 7 4 3 4 3 4 4 7 5 5 9 8 9 4 2 4 2 4 4 4 5 6 5 2 1 3 1 2 1 2 1 4 3 2 1 4 4 3 0 6 1 1 2 3 3 4 6 5 0 3 7 7 4 2 2 3 4 4 5
16 15 16 16 16 16 16 15 14 14 15 15 8 5 2 3 3 2 2 2 2 7 7 3 6 9 8 4 8 6 4 4 5 5 8 7 1 8 11 5 1 6 7 3 3 4 3 0 0 2 5 1 1 3 3 1 3 1 2 1 1 1 2 0 3 4 2 1 5 1 3 3 2 4 5 4 1 3 5 3 1 1 2 2 4 5 6
16 15 16 16 16 16 15 15 15 12 14 15 9 5 5 5 3 1 4 4 3 9 15 13 6 8 4 5 5 5 5 5 3 3 2 4 5 13 5 5 2 1 5 3 6 1 4 2 1 0 4 2 2 2 1 2 1 1 1 2 3 1 2 0 1 1 1 4 5 2 4 0 2 10 3 2 1 3 1 1 2 3 2 3 4 6 6
17 16 16 16 16 16 16 16 16 13 14 15 11 6 7 2 3 3 4 5 6 10 10 3 3 9 5 9 10 10 8 9 5 3 3 5 7 5 5 2 7 4 4 3 2 3 1 3 3 2 0 1 0 1 5 2 2 3 1 1 2 0 3 1 2 4 2 2 2 1 1 4 2 2 2 2 1 2 1 2 3 2 2 2 3 5 6
17 16 16 16 16 16 17 16 15 13 12 15 14 5 7 2 3 2 4 4 7 9 9 10 7 14 15 14 15 13 14 15 14 8 6 6 2 2 3 3 5 1 1 0 2 2 4 1 0 1 1 0 1 1 1 2 1 2 1 1 3 1 1 4 3 2 1 1 2 1 3 3 3 1 1 2 5 3 3 4 1 1 3 0 1 4 4
17 17 16 16 16 17 16 16 15 14 13 14 10 4 8 7 4 2 2 7 7 10 11 15 11 13 12 12 16 16 15 13 12 9 8 5 5 2 4 2 3 1 1 2 2 1 2 1 0 2 1 1 1 2 1 2 1 1 2 1 3 1 1 1 5 0 2 0 2 1 1 2 6 2 2 3 4 4 1 1 3 1 2 3 2 3 4
17 16 16 16 16 16 17 16 16 15 13 12 10 6 6 5 6 4 2 5 4 9 9 4 2 6 1 4 3 5 7 8 12 13 8 8 3 5 2 3 2 2 1 2 1 0 1 1 1 1 1 1 2 2 2 3 1 1 1 2 3 2 0 1 4 1 3 2 1 4 2 3 4 4 5 2 3 4 3 4 4 3 3 3 1 3 5
18 17 16 16 16 17 17 17 17 15 14 15 12 6 7 6 2 2 4 5 3 3 6 9 7 11 8 6 9 8 7 9 8 10 9 11 11 6 1 0 0 1 4 3 1 2 2 0 0 0 2 0 1 0 1 4 0 1 2 1 1 1 1 5 2 2 2 3 1 1 1 0 1 3 5 5 7 7 5 3 2 3 3 2 2 1 4
18 17 16 16 15 17 17 17 17 15 14 16 14 7 6 8 4 4 4 6 5 4 4 5 10 4 4 12 9 4 3 3 6 9 11 14 14 13 7 4 5 2 1 0 1 1 1 1 1 0 2 0 0 1 0 1 2 0 3 0 1 2 3 1 2 3 0 1 0 2 1 6 6 5 4 3 3 3 3 3 4 5 8 7 6 5 2
18 17 16 16 16 17 17 16 16 15 15 15 9 6 7 8 6 6 6 5 3 3 3 6 8 14 8 17 13 4 3 3 5 7 9 11 12 8 6 6 8 4 3 3 1 2 2 1 0 1 0 0 1 0 1 1 1 1 2 2 2 1 2 1 4 6 3 4 3 2 3 2 3 5 5 6 5 3 5 9 11 10 9 7 7 7 6
17 16 16 15 16 17 17 17 16 15 14 16 8 8 8 8 4 5 6 7 3 2 5 7 9 16 16 11 5 4 9 7 7 6 7 9 10 8 7 9 5 5 1 2 3 3 1 3 1 1 0 2 1 1 1 0 2 3 4 3 1 3 1 2 2 5 1 1 1 2 5 4 1 3 6 4 5 4 12 8 6 6 6 5 6 7 8
17 16 15 16 17 17 17 16 16 14 16 13 6 9 6 2 1 4 5 4 3 3 5 8 10 6 3 10 14 11 2 3 5 6 6 6 9 9 10 9 7 3 2 3 2 0 1 2 1 0 1 1 1 1 3 3 3 1 2 3 3 2 1 1 1 2 0 0 4 3 2 5 1 3 3 5 5 5 9 5 4 5 6 5 8 7 6
17 15 16 16 17 18 17 16 16 14 15 6 5 2 3 1 1 2 4 5 4 2 3 5 7 6 4 4 7 6 8 3 2 5 3 5 7 9 9 6 3 2 2 1 2 2 4 0 1 2 1 1 1 0 3 1 2 1 2 2 3 3 1 1 2 1 2 1 3 5 9 6 3 2 3 4 6 4 6 6 5 6 6 5 9 7 6
16 15 17 17 18 18 18 17 16 14 13 2 3 2 2 0 1 2 6 3 2 2 1 2 7 7 8 4 3 10 10 11 4 1 2 5 5 5 4 3 0 3 1 1 0 3 2 1 2 0 1 3 3 1 3 3 1 1 2 3 2 3 4 5 2 2 4 5 5 4 5 3 1 2 8 8 7 5 4 4 5 6 5 10 10 8 7
16 16 17 18 19 19 19 18 17 14 5 3 3 3 2 1 2 2 5 4 7 3 1 5 6 3 4 6 3 3 6 6 2 2 0 1 2 2 4 4 3 2 2 2 1 1 1 1 1 1 1 1 4 3 2 3 3 1 1 2 1 2 4 5 7 6 4 2 2 8 8 6 5 4 2 2 3 4 5 4 4 4 7 7 6 7 7
16 17 18 19 20 21 20 21 19 13 6 8 14 17 19 23 22 17 10 5 2 3 2 1 3 3 3 7 9 6 2 3 2 5 1 1 1 2 1 1 2 1 1 1 1 0 1 2 1 3 1 2 2 1 2 1 0 1 1 2 0 1 2 3 4 5 5 5 1 5 4 3 2 2 2 2 3 4 4 5 2 6 10 12 12 11 11
16 17 19 20 22 24 21 20 19 17 12 6 6 6 5 11 11 15 4 4 2 1 1 1 3 2 7 5 4 5 3 3 4 3 1 1 0 1 1 0 1 2 1 1 2 1 0 1 2 0 1 3 1 2 1 1 2 0 1 1 1 1 1 6 9 8 8 9 6 8 7 6 4 3 4 5 6 4 4 5 6 11 9 10 10 8 5
16 18 19 20 22 22 22 16 5 2 3 3 4 5 3 6 7 3 9 6 3 0 0 1 1 4 5 5 3 7 2 3 3 1 0 3 1 1 1 1 1 2 1 1 2 1 1 0 3 3 0 2 2 2 2 2 0 1 3 3 1 3 4 6 5 6 6 4 4 6 4 3 6 7 6 5 6 5 8 8 6 9 10 7 7 7 8
16 18 20 22 24 15 2 1 3 3 1 3 5 2 6 12 8 4 7 1 1 2 1 1 1 3 2 3 5 6 3 3 1 2 1 1 2 2 2 1 1 0 0 2 0 2 1 0 0 0 1 2 1 2 3 3 4 3 3 3 4 3 1 4 8 6 6 4 6 5 7 8 10 5 5 4 5 5 6 7 7 7 7 7 6 5 7
16 19 21 16 6 1 0 1 1 1 2 3 9 16 14 2 2 3 3 1 2 0 2 1 3 5 4 5 2 7 4 5 4 4 4 3 1 2 3 2 1 2 1 3 3 3 1 1 3 2 2 1 1 2 3 3 3 4 3 4 2 3 7 8 7 10 9 7 7 6 5 7 6 4 6 7 5 4 8 9 5 6 6 5 5 6 5
17 16 3 4 4 2 1 0 1 3 12 16 11 2 1 0 0 0 1 0 2 3 2 2 6 1 1 1 6 5 2 5 2 2 3 1 0 0 0 2 0 0 0 1 1 0 1 5 3 1 0 3 4 4 3 3 3 2 1 2 4 5 8 9 8 9 8 7 5 4 5 6 6 3 6 5 5 6 4 1 3 3 3 3 3 2 4
8 3 2 2 2 2 1 0 4 15 10 4 1 1 0 0 1 0 1 1 0 2 2 4 5 3 3 3 8 3 3 3 6 2 2 2 1 2 1 1 1 3 1 1 2 3 1 3 2 2 1 2 3 1 2 1 1 0 1 2 3 5 7 5 2 6 7 6 9 5 6 7 7 2 2 5 3 3 2 3 4 3 3 3 3 3 5
3 5 2 3 1 4 3 4 10 8 1 0 0 1 0 0 1 1 0 1 1 2 1 4 2 4 7 8 2 8 1 2 1 4 1 5 0 0 1 1 1 1 0 0 2 3 1 0 1 1 1 1 1 2 2 0 2 2 2 3 3 2 2 2 3 4 7 6 5 3 3 4 5 7 5 4 5 5 4 3 3 2 3 3 2 4 4
1 1 2 1 4 3 5 7 5 0 0 0 0 0 1 1 2 1 1 0 2 4 2 3 0 1 2 3 3 7 6 0 1 1 1 2 2 1 1 0 0 0 1 0 2 2 2 2 1 1 2 2 3 1 1 2 2 2 3 3 4 3 4 4 4 4 7 8 6 5 5 4 5 4 4 4 4 4 4 3 3 2 3 4 4 2 1
1 1 4 4 5 6 6 2 1 0 0 0 1 1 1 1 0 1 1 1 2 1 2 3 2 2 5 9 7 4 5 2 1 0 0 1 1 0 1 1 2 1 0 1 1 3 2 1 0 2 3 2 2 1 2 4 1 3 3 3 4 5 5 6 7 4 5 8 5 4 4 4 4 4 4 4 4 4 4 4 3 3 3 1 0 0 1
8 7 1 2 2 1 0 1 1 1 1 0 1 1 1 0 2 2 1 2 1 0 2 1 3 2 3 1 2 4 4 1 1 1 0 1 1 2 1 1 1 1 0 2 1 2 1 1 1 4 4 1 1 2 3 3 3 3 2 2 2 1 5 7 6 6 4 6 6 5 4 4 4 3 3 4 4 3 1 1 2 1 0 2 2 3 4
0 1 0 2 1 2 0 0 0 1 1 0 1 1 0 1 2 1 1 1 1 1 1 3 4 5 4 1 1 2 2 1 1 0 0 0 1 1 1 0 0 2 0 2 2 0 1 2 6 2 1 2 1 2 3 4 5 4 4 3 3 4 5 6 6 7 5 4 4 4 4 4 4 3 2 2 4 5 2 2 0 1 2 3 4 4 3
1 1 1 1 0 1 1 2 0 1 2 1 1 1 0 1 2 0 2 2 1 3 3 1 1 1 5 5 0 1 0 1 1 1 1 0 0 0 0 0 1 3 1 0 1 1 1 1 2 2 3 2 4 4 3 4 5 7 6 4 4 3 4 7 5 5 5 6 6 5 4 4 4 4 3 1 1 1 4 3 2 3 2 3 3 3 3
2 0 1 2 3 1 1 1 0 0 1 1 0 0 2 5 2 5 4 0 1 5 6 6 4 1 5 3 1 1 1 1 1 1 0 1 1 0 0 0 2 1 1 2 1 2 3 4 3 4 4 5 5 4 4 4 4 4 7 7 4 4 3 4 6 5 5 5 3 4 4 3 4 4 3 1 2 2 1 2 3 3 3 3 3 2 1
0 0 0 0 0 2 0 0 0 0 1 2 3 1 4 6 6 7 5 2 4 3 4 4 4 3 2 4 2 3 1 1 1 1 1 0 1 0 1 1 1 0 1 0 2 4 3 5 5 4 3 3 4 4 5 5 4 5 4 5 5 5 3 1 2 5 4 3 3 3 3 4 2 2 3 2 0 0 1 2 2 2 3 3 2 2 2
0 1 0 0 2 1 0 0 1 4 3 5 5 3 5 3 3 5 3 3 4 0 3 4 5 4 1 2 1 2 2 1 0 2 0 0 1 1 1 2 0 1 1 2 3 5 5 4 4 4 4 5 7 7 5 5 4 5 5 7 6 5 4 4 4 4 4 5 4 4 3 3 4 3 2 2 1 1 2 1 1 2 4 3 3 3 3
1 1 0 1 1 0 1 3 4 5 4 3 4 5 4 5 4 6 6 1 1 4 2 1 2 0 2 1 0 2 1 0 1 2 1 1 0 1 1 0 0 1 4 5 3 4 5 4 3 2 3 5 4 6 6 6 8 6 6 8 8 8 6 6 5 5 4 4 4 5 4 3 3 4 2 2 0 0 1 2 2 1 2 2 3 3 2
0 1 0 0 2 2 3 2 1 3 5 6 4 6 6 6 6 5 3 5 2 1 1 1 0 1 2 0 1 2 2 1 0 1 1 0 0 0 1 0 2 3 2 2 4 5 4 2 2 4 4 5 5 5 6 4 4 5 4 4 4 4 5 5 5 5 5 5 5 4 4 4 4 4 4 4 2 2 3 2 2 2 1 1 2 2 1
0 0 2 2 2 3 3 3 3 5 7 7 6 6 4 6 4 5 3 3 5 3 4 1 1 1 0 1 1 0 1 0 1 1 0 0 0 1 1 1 2 3 6 7 7 7 6 2 3 5 4 4 4 4 4 5 6 5 4 4 3 4 3 4 5 5 4 3 4 6 5 5 6 5 2 2 3 3 2 0 1 2 2 1 1 2 1
1 0 1 1 2 4 4 3 2 5 6 6 6 4 1 4 5 6 4 3 3 5 2 2 1 1 1 0 0 1 2 1 0 1 2 1 1 0 2 3 7 7 7 8 9 7 5 3 2 4 7 6 5 4 3 2 3 4 4 4 4 4 4 4 4 4 4 4 4 4 4 2 3 3 3 3 3 2 1 2 0 3 2 3 2 1 1
Wind_Direction
347 345 345 345 345 346 346 348 349 349 345 349 352 325 319 342 272 267 153 174 177 278 248 234 230 239 255 293 279 270 273 256 295 301 224 250 213 230 206 236 227 240 209 214 205 190 142 186 167 177 165 232 212 231 200 160 138 118 221 155 231 153 107 32 327 50 123 352 1 142 153 143 142 237 128 153 181 170 160 163 182 167 206 31 317 235 252
346 348 346 343 343 344 346 349 348 348 351 345 330 314 324 303 297 312 139 183 216 188 298 301 270 269 279 272 277 268 259 269 296 249 257 246 129 222 247 289 212 317 207 258 258 198 80 275 106 84 186 228 216 186 196 172 188 172 224 149 237 117 285 117 117 107 162 62 47 58 183 161 190 193 191 186 146 132 147 106 109 137 222 172 118 226 284
347 349 349 342 343 346 348 350 348 348 345 349 337 323 303 278 236 238 288 185 206 218 232 265 294 299 304 307 300 318 248 229 245 268 269 256 259 275 249 219 150 217 194 213 250 331 164 209 287 37 173 231 193 196 172 194 199 194 193 223 144 138 200 104 131 160 169 181 173 181 183 191 174 160 163 189 165 163 115 168 106 162 259 126 139 247 254
346 350 350 346 344 347 350 350 350 348 344 347 10 325 306 7 341 310 307 182 202 216 250 255 272 295 320 316 310 262 291 290 243 241 284 232 246 222 280 274 261 268 222 226 88 340 235 172 294 52 312 305 301 188 186 184 217 165 209 227 109 190 153 139 149 162 188 201 197 33 82 92 177 184 168 192 190 175 143 113 108 191 199 176 222 184 267
346 350 351 347 347 347 350 353 351 350 345 346 356 313 167 308 46 327 329 313 199 242 199 275 204 293 337 299 330 309 285 284 303 168 251 133 161 258 190 238 334 244 122 278 61 200 299 246 333 262 270 262 259 325 195 210 196 188 210 218 44 36 347 251 157 196 208 195 186 165 151 159 145 138 179 181 181 173 152 147 202 175 107 262 262 193 155
347 349 350 348 347 349 351 351 350 350 349 343 13 35 328 19 32 302 32 309 310 328 336 217 302 296 281 248 320 287 317 328 309 221 234 327 266 175 312 162 204 250 212 183 89 320 297 173 211 308 229 278 332 339 229 192 187 192 202 141 168 142 261 270 129 264 226 228 243 158 150 162 165 162 164 178 181 152 172 203 200 146 181 208 243 159 193
348 349 351 349 349 347 348 352 353 353 349 343 10 26 355 309 300 271 351 320 280 255 279 299 295 300 306 262 298 295 317 316 322 234 299 354 294 212 296 279 232 227 215 110 169 189 106 275 293 208 254 181 317 11 67 160 192 170 145 139 174 151 261 244 224 278 291 241 220 220 150 154 151 161 171 170 157 183 184 198 182 182 209 214 186 178 222
351 350 348 349 349 351 349 351 354 355 349 343 16 48 0 15 341 324 295 234 280 284 285 287 306 318 333 340 321 299 310 318 327 161 189 321 329 96 158 280 296 167 192 187 205 208 187 172 170 255 164 312 198 224 173 137 164 150 168 169 250 145 277 95 48 350 286 319 189 247 151 148 158 172 166 164 174 180 193 138 157 103 350 68 116 162 275
351 350 349 348 349 350 352 350 356 358 351 12 17 26 44 314 275 286 310 315 290 295 307 322 319 319 342 351 333 330 321 320 317 301 191 201 195 183 214 232 275 234 215 204 227 254 215 179 199 209 173 211 227 65 281 132 145 165 150 145 273 152 264 41 51 272 301 4 147 212 161 146 139 156 154 139 131 147 185 157 203 154 201 121 115 167 267
346 349 350 349 348 348 351 353 356 0 356 7 345 3 345 302 266 284 286 282 302 315 316 311 304 339 6 326 315 314 304 301 317 323 232 249 220 228 265 287 300 299 270 224 224 213 226 217 215 220 223 232 268 281 271 185 149 145 179 71 156 173 176 233 79 120 268 282 102 130 101 84 117 195 193 169 156 171 164 337 180 195 145 119 143 231 218
344 346 351 350 348 348 350 353 354 356 359 13 355 342 345 345 332 318 254 284 280 321 326 299 353 272 310 321 318 320 311 319 331 349 307 235 252 226 239 261 269 265 240 227 197 132 213 242 253 221 236 231 249 273 238 8 92 151 154 140 259 131 182 246 125 188 232 342 134 139 101 154 223 238 190 149 162 151 152 195 192 202 153 191 198 216 226
342 344 347 350 348 347 348 351 354 354 357 351 331 329 333 324 310 276 308 313 290 314 325 296 314 310 316 308 320 306 313 323 316 302 266 270 279 292 207 228 184 300 241 277 320 304 247 284 297 340 240 223 229 192 200 135 179 81 120 220 246 143 66 52 116 117 190 33 92 104 158 220 240 287 219 207 254 162 157 147 218 191 225 313 274 253 280
342 342 343 348 348 346 346 348 352 351 353 348 343 342 327 329 304 318 302 296 293 326 332 311 299 281 278 300 318 317 314 294 294 295 248 251 301 318 236 165 187 241 288 323 321 331 134 138 14 150 95 141 180 150 96 113 256 23 145 162 139 45 53 359 8 128 56 68 92 134 219 240 289 313 84 187 113 148 100 58 341 228 200 196 241 243 198
340 340 339 342 349 347 344 346 348 348 349 353 342 329 320 331 338 324 331 326 294 276 301 290 294 324 334 327 325 313 320 336 339 310 322 252 276 280 291 239 235 283 302 312 308 105 41 31 119 59 51 102 95 105 7 67 67 24 32 283 115 120 78 111 278 76 146 183 119 160 287 26 6 22 23 34 35 177 150 171 263 226 205 173 233 101 116
335 338 340 339 345 349 346 344 345 347 345 349 330 319 324 329 331 314 300 267 296 298 278 276 329 320 317 310 330 331 338 335 347 336 310 272 264 230 225 232 259 269 252 217 280 54 165 107 76 103 65 100 138 158 22 17 307 305 270 285 109 129 188 204 55 287 127 123 58 27 38 134 274 225 291 255 189 213 202 108 261 265 224 200 192 175 147
330 333 336 338 337 344 347 343 344 346 343 342 329 329 304 297 285 290 327 299 301 307 258 210 313 306 314 307 308 312 320 323 331 309 317 325 290 325 322 317 295 242 137 73 47 93 59 111 132 113 127 119 103 95 327 21 345 301 334 320 4 84 103 227 201 222 62 59 112 166 131 243 216 266 277 276 261 261 182 82 240 272 213 199 183 183 176
324 327 330 334 335 337 344 345 347 347 338 339 333 328 302 312 13 338 317 306 241 247 285 303 291 274 303 300 330 355 339 337 343 350 332 328 324 306 299 331 318 94 311 104 4 69 40 50 84 106 70 47 67 135 107 77 310 292 336 10 322 300 303 109 88 50 87 134 92 123 203 112 334 253 279 305 25 170 98 147 253 267 288 234 192 193 173
315 323 323 326 332 333 336 346 357 346 336 333 329 324 285 297 253 242 296 272 302 280 262 206 50 332 290 263 297 302 295 301 298 286 256 282 304 324 328 336 338 318 61 73 355 66 67 54 95 125 100 334 117 76 122 176 237 230 188 251 301 298 339 52 151 141 58 83 102 355 328 280 262 266 300 348 28 79 109 188 233 240 246 238 196 230 180
306 316 319 321 326 329 330 338 350 342 337 332 330 297 244 269 298 212 310 269 275 275 236 304 316 264 262 282 256 273 272 295 309 307 310 330 283 320 298 261 271 341 17 358 31 63 85 222 306 66 101 329 17 139 153 99 250 323 74 63 244 3 85 347 64 38 73 153 98 180 233 239 280 278 291 281 62 95 185 233 195 162 264 249 192 192 199
301 311 317 318 321 325 327 330 343 347 335 334 333 309 291 285 250 210 331 319 251 265 286 274 213 228 211 227 280 280 298 290 232 251 317 289 305 343 354 12 325 2 333 34 43 350 75 48 299 331 59 74 44 146 85 254 77 193 228 256 115 210 102 311 69 187 79 36 78 41 100 297 76 316 9 56 109 221 208 305 312 216 224 230 238 190 207
306 310 314 315 315 321 327 327 335 346 337 331 333 314 313 223 236 226 193 270 303 304 296 251 207 223 235 257 251 254 254 255 252 283 260 260 304 338 28 341 310 355 351 37 32 338 46 23 14 49 236 117 231 77 187 175 290 218 241 225 112 177 83 240 264 190 124 75 96 108 209 254 292 36 133 281 215 306 222 124 328 308 234 244 228 225 189
311 310 311 311 314 319 324 325 329 341 336 329 329 312 291 281 265 211 240 215 258 233 254 279 302 284 267 254 258 245 241 241 247 230 265 294 288 250 260 288 299 338 274 86 27 359 14 67 48 62 57 294 11 145 107 86 139 277 306 90 36 282 208 183 137 222 112 170 201 243 237 246 270 194 271 265 283 279 208 173 161 29 326 248 192 217 187
312 311 310 310 313 316 320 324 325 333 336 332 326 296 301 297 277 266 275 284 251 255 263 274 277 268 269 258 240 235 232 231 242 242 221 234 304 269 232 296 328 279 334 36 42 163 234 83 344 150 81 227 153 138 177 179 170 315 56 332 148 337 181 207 85 170 236 168 160 259 351 342 340 314 238 277 313 326 44 48 42 18 262 253 224 172 154
310 311 310 310 311 313 317 319 322 329 336 328 320 302 299 294 292 308 264 253 275 299 292 200 343 313 284 297 277 211 206 230 221 228 207 190 216 294 305 233 232 16 2 309 180 203 250 154 213 136 100 232 94 52 102 32 20 152 65 1 340 270 202 78 108 199 69 87 329 44 344 319 3 342 334 333 352 337 336 358 23 342 349 352 333 157 145
310 309 309 309 310 311 314 319 322 326 329 324 318 290 285 282 222 162 306 320 317 17 303 310 274 246 263 260 277 274 224 215 204 209 196 203 214 217 220 54 213 23 306 306 65 46 50 17 325 62 103 257 111 20 264 113 316 128 71 280 10 360 122 71 87 91 117 184 220 342 310 240 329 24 23 1 348 354 358 354 346 358 26 61 5 73 89
309 310 309 308 308 309 314 318 322 327 326 320 321 307 294 280 247 219 237 252 251 260 296 307 281 288 304 324 311 251 251 238 223 195 197 204 210 224 253 327 318 30 284 48 83 218 136 64 95 162 109 286 105 129 138 220 151 159 124 177 232 260 351 150 175 97 327 6 340 306 47 48 32 16 23 343 317 322 2 25 47 39 44 33 43 47 86
306 310 307 307 307 309 315 319 323 327 324 321 317 298 280 275 247 213 214 211 244 270 199 259 286 303 342 312 290 298 246 223 219 214 213 210 215 220 233 264 279 337 11 338 34 122 69 98 88 353 153 261 72 137 184 359 68 78 50 296 335 52 46 282 89 79 121 168 202 140 104 71 347 357 351 336 333 331 40 30 31 21 28 21 54 49 44
306 307 306 306 307 310 314 320 325 326 323 323 319 297 280 269 244 204 207 210 238 297 296 289 307 297 305 271 246 262 285 264 247 235 214 212 201 198 212 233 239 269 286 27 349 4 16 31 336 232 204 294 48 344 35 318 63 32 37 346 338 81 201 107 100 150 162 252 213 130 121 96 275 278 317 334 336 36 57 31 20 13 23 23 52 56 40
305 306 306 305 305 309 315 321 324 323 325 328 323 308 300 282 294 175 187 182 257 290 266 272 273 293 304 304 315 311 247 198 253 235 219 193 183 186 203 211 200 173 83 82 110 151 210 246 190 118 15 201 114 314 39 12 40 58 290 326 6 295 181 186 175 161 326 181 165 161 117 129 80 345 341 353 346 46 72 43 35 33 24 28 55 48 65
304 304 304 304 305 309 315 320 320 321 325 338 338 357 358 84 88 170 167 158 190 276 315 333 326 271 303 312 291 295 304 285 233 254 216 149 165 181 204 190 177 152 125 155 142 304 251 20 303 279 281 7 114 114 73 211 84 246 275 320 332 346 4 292 171 106 100 197 145 98 102 106 118 84 30 18 5 18 64 39 28 35 36 51 62 48 31
304 301 302 303 306 310 314 316 314 316 321 347 343 354 10 10 185 150 141 118 19 318 242 187 252 296 313 248 281 298 303 313 323 48 213 165 174 175 183 128 59 144 162 350 267 217 126 140 264 329 56 65 113 84 154 133 68 336 352 23 348 32 51 53 67 78 101 101 83 76 74 55 310 36 37 17 5 3 49 47 26 41 49 57 51 56 52
302 300 301 304 307 310 310 310 309 311 289 212 240 208 188 147 90 276 269 342 4 323 299 320 310 326 300 300 270 255 283 293 319 351 354 107 123 125 127 172 197 224 156 167 220 77 204 209 118 326 34 333 71 106 85 85 111 175 350 20 354 93 93 72 54 38 35 23 82 72 55 38 19 96 143 311 341 5 58 60 31 40 53 66 62 54 54
303 303 305 308 309 308 307 304 302 297 265 260 248 252 265 272 272 268 265 273 272 227 172 123 255 297 287 278 320 299 243 338 359 7 33 312 128 119 106 22 104 102 12 112 267 197 185 123 129 63 304 354 82 100 88 97 181 285 273 249 263 4 55 106 84 55 47 17 234 153 176 156 131 52 94 49 29 24 22 33 17 56 48 43 37 31 30
305 307 309 308 306 305 303 300 297 292 286 265 257 242 240 254 258 267 219 150 214 231 178 195 290 300 276 323 350 281 20 12 291 13 24 311 176 97 190 80 3 132 283 215 268 92 286 71 90 201 344 16 24 82 55 353 329 45 66 62 39 32 40 59 52 28 33 32 19 77 98 114 117 115 69 52 39 17 43 39 47 60 49 50 40 34 21
312 312 310 308 304 302 304 304 294 182 213 250 253 279 268 247 263 246 156 171 144 288 216 273 290 304 324 331 348 280 335 3 330 308 174 279 36 82 144 110 306 73 259 95 43 66 47 325 160 70 3 322 45 51 277 255 278 98 111 106 144 106 77 65 35 64 48 22 30 67 71 119 94 62 56 46 41 26 54 44 40 70 62 43 40 29 33
315 313 309 306 305 307 336 120 187 148 127 225 243 226 283 305 308 189 176 233 307 149 151 245 110 243 163 278 304 283 338 333 280 318 231 289 347 46 90 105 81 286 185 77 162 355 74 268 71 322 305 64 215 180 230 186 160 153 165 158 193 138 176 154 136 102 88 71 69 74 75 67 79 84 68 53 45 35 55 59 39 60 68 52 31 29 35
318 313 311 311 315 110 321 205 287 190 193 228 283 293 292 245 76 67 39 327 281 264 240 158 252 238 189 244 269 274 12 317 331 337 337 23 275 300 29 35 69 281 41 6 11 43 303 32 101 76 30 105 302 253 243 204 182 154 189 212 202 94 101 103 123 112 87 63 60 50 60 77 67 54 67 53 37 36 53 47 29 56 67 54 32 36 27
317 315 351 10 24 18 348 349 129 296 315 304 307 320 24 141 75 16 34 131 258 179 246 180 255 234 78 91 257 255 4 270 65 2 310 229 49 329 14 96 243 356 76 253 261 191 13 38 37 89 288 252 261 272 256 213 223 225 230 152 141 144 138 141 138 109 102 91 68 74 62 58 56 27 81 64 53 62 60 50 39 50 78 74 52 44 53
329 322 32 24 84 274 204 267 333 322 306 256 162 132 288 9 67 319 214 227 322 215 231 205 250 159 162 221 268 275 196 284 326 20 16 277 94 306 12 74 305 68 347 24 281 45 59 354 358 26 111 317 19 6 326 283 301 311 193 170 143 155 152 154 138 133 155 173 168 180 159 145 134 123 99 100 75 60 63 58 55 37 53 57 41 44 54
16 13 356 341 266 241 283 299 333 325 298 30 313 112 230 282 122 265 54 132 249 260 137 240 223 199 201 219 278 313 316 117 323 311 277 306 86 109 273 97 274 89 45 91 261 31 113 122 299 69 275 292 242 287 342 357 80 30 62 110 119 118 89 89 66 71 94 85 102 123 93 113 124 134 145 129 120 99 73 51 45 33 39 37 19 55 54
15 318 359 266 263 298 300 321 336 52 65 83 348 358 64 296 246 192 112 254 241 234 200 201 250 303 247 218 202 242 287 10 257 122 128 267 254 94 49 12 243 83 326 292 288 62 74 80 4 155 224 237 210 252 91 87 84 49 55 94 109 111 107 98 95 104 98 90 84 77 87 100 103 115 123 128 117 114 114 107 81 64 57 49 44 22 306
214 220 232 251 279 286 310 331 82 41 355 209 132 261 231 236 324 337 160 165 251 244 285 165 266 229 250 180 205 192 275 197 140 105 125 310 318 74 218 321 1 97 228 238 74 55 70 104 320 292 264 251 250 262 143 120 60 85 72 70 121 134 126 110 93 54 88 110 107 106 105 107 112 119 134 121 113 116 116 97 67 53 75 13 14 3 66
280 295 33 358 342 326 291 335 282 127 157 255 54 309 332 46 220 183 269 265 285 92 276 198 240 254 279 102 292 212 210 230 283 291 69 262 304 55 78 20 45 52 207 343 64 52 44 160 217 250 261 252 243 174 154 134 113 89 92 80 94 103 117 111 110 114 104 117 127 129 127 115 123 143 127 111 102 69 35 94 132 132 30 58 50 41 31
150 99 5 19 351 278 109 297 193 50 334 75 117 219 268 313 311 10 2 289 306 326 314 6 315 51 312 288 195 308 344 312 70 69 11 5 83 325 45 297 243 256 334 40 35 83 218 224 207 214 258 277 292 206 162 125 124 110 83 57 64 85 95 100 108 105 85 69 85 107 119 126 117 100 99 118 129 129 132 74 332 83 56 50 47 33 7
45 352 30 13 340 265 61 303 319 117 215 264 165 204 165 193 276 196 227 248 131 269 315 342 260 286 262 278 316 256 130 251 295 100 256 355 26 29 98 276 254 27 70 233 328 317 345 283 276 273 266 225 206 194 184 153 158 143 143 106 96 108 133 126 131 127 137 139 149 143 130 128 116 114 100 80 49 95 134 144 190 117 101 85 60 40 355
59 151 38 37 330 305 129 225 318 339 289 157 256 191 238 245 231 267 260 139 281 310 338 306 318 218 263 253 148 277 345 63 13 232 168 65 97 268 246 253 74 68 27 44 57 230 220 236 247 241 221 201 188 182 162 163 151 129 126 139 177 170 178 152 155 146 148 148 149 131 141 130 133 132 121 129 156 153 176 140 134 139 134 85 66 61 360
42 38 87 125 254 271 116 162 273 219 230 276 245 221 234 264 262 264 280 277 271 252 275 261 240 217 276 313 346 342 19 32 246 271 80 219 198 260 12 120 256 106 126 256 258 258 270 255 238 234 235 203 161 155 159 157 161 162 168 143 151 173 159 140 145 137 132 113 110 108 114 119 105 125 136 130 25 16 68 94 123 134 119 126 154 139 90
121 261 80 57 243 272 319 273 303 289 245 218 264 281 271 262 306 292 271 223 223 344 324 343 348 352 353 295 111 247 271 348 306 293 153 221 33 41 11 36 329 254 185 163 230 223 232 247 229 220 217 188 160 150 154 151 161 159 166 161 165 162 167 164 164 157 141 143 157 141 137 165 153 130 119 144 178 47 80 93 126 108 104 106 95 81 84
155 110 99 222 242 261 259 282 355 314 296 311 285 296 323 346 293 276 286 297 324 298 260 227 223 93 273 272 14 336 331 328 59 271 7 21 116 226 136 219 11 311 257 180 217 216 223 231 229 192 147 143 164 156 162 165 162 169 172 166 181 185 170 174 181 167 157 154 155 148 177 172 121 119 118 89 126 297 149 141 119 106 108 118 108 101 76
81 345 5 235 331 309 267 280 45 312 315 326 351 337 335 333 324 306 326 329 312 340 354 40 313 181 233 225 342 338 276 318 162 319 56 358 276 212 69 351 231 191 286 300 260 260 250 226 140 125 139 140 146 150 152 167 165 173 185 173 152 154 169 164 164 170 169 172 169 165 151 130 137 133 148 176 193 112 104 97 113 107 93 123 124 120 118
309 149 244 194 185 254 0 336 317 308 320 313 323 314 341 313 277 282 308 304 331 14 47 64 280 346 343 26 69 221 281 332 13 359 133 184 207 88 181 219 245 224 259 268 255 271 285 253 155 124 126 141 159 169 171 167 165 171 160 141 146 143 152 169 165 160 166 153 140 132 144 169 188 187 185 125 107 89 65 26 97 123 149 153 148 135 163
43 358 275 293 243 240 228 246 253 227 242 264 292 251 323 289 278 288 313 339 33 61 351 303 33 13 42 101 225 253 303 10 297 26 36 318 130 34 262 223 273 286 282 298 299 306 306 268 226 154 152 161 177 167 142 119 129 131 136 139 144 149 158 166 168 161 152 152 169 175 181 163 122 118 95 78 72 83 106 268 173 131 179 182 176 183 188